When you browse on this site, cookies collect data to enhance your experience and personalize the content and advertising you see.
Visit our Privacy Policy to learn more. By continuing to use the site, you agree to this use of cookies and data.
  • En España
  • Lista de países
  • Para 7 días
  • Temperatura del agua
  • El tiempo en el mapa
  • Informadores
  • user-avatar
    Iniciar sesión

    Tiempo cada hora Sevan

    Hoy, 7 Abril, Martes

    Tiempo Temperatura Precipitaciones Viento Presión Humedad
    00:00 +7°C° 0.1 mm 1 mps 641 mmHg 90%
    01:00 +7°C° 0.2 mm 1 mps 641 mmHg 90%
    02:00 +7°C° 0.2 mm 1 mps 641 mmHg 90%
    03:00 +6°C° 0 mm 2 mps 641 mmHg 89%
    04:00 +6°C° 0.2 mm 2 mps 641 mmHg 87%
    05:00 +5°C° 0.2 mm 3 mps 641 mmHg 85%
    06:00 +4°C° 0.2 mm 3 mps 641 mmHg 82%
    07:00 +4°C° 0.3 mm 3 mps 641 mmHg 81%
    08:00 +4°C° 0.3 mm 4 mps 641 mmHg 79%
    09:00 +4°C° 0 mm 4 mps 642 mmHg 76%
    10:00 +5°C° 0.2 mm 4 mps 642 mmHg 73%
    11:00 +5°C° 0.2 mm 4 mps 642 mmHg 69%
    12:00 +6°C° 0.2 mm 4 mps 643 mmHg 65%
    13:00 +6°C° 0 mm 4 mps 643 mmHg 65%
    14:00 +7°C° 0 mm 3 mps 643 mmHg 64%
    15:00 +7°C° 0 mm 3 mps 643 mmHg 63%
    16:00 +5°C° 0 mm 4 mps 642 mmHg 65%
    17:00 +4°C° 0 mm 4 mps 642 mmHg 67%
    18:00 +3°C° 0 mm 4 mps 642 mmHg 68%
    19:00 +1°C° 0 mm 4 mps 642 mmHg 69%
    20:00 0°C° 0 mm 4 mps 643 mmHg 70%
    21:00 -1°C° 0 mm 4 mps 643 mmHg 71%
    22:00 -2°C° 0 mm 4 mps 643 mmHg 70%
    23:00 -1°C° 0 mm 3 mps 643 mmHg 70%

    Mañana, 8 Abril, Miércoles

    Tiempo Temperatura Precipitaciones Viento Presión Humedad
    00:00 -1°C° 0 mm 3 mps 644 mmHg 70%
    01:00 -1°C° 0 mm 3 mps 644 mmHg 69%
    02:00 -2°C° 0 mm 3 mps 644 mmHg 68%
    03:00 -2°C° 0 mm 2 mps 644 mmHg 68%
    04:00 -2°C° 0 mm 2 mps 644 mmHg 67%
    05:00 -2°C° 0 mm 2 mps 644 mmHg 67%
    06:00 -2°C° 0 mm 2 mps 645 mmHg 67%
    07:00 -1°C° 0 mm 2 mps 645 mmHg 64%
    08:00 +1°C° 0 mm 2 mps 646 mmHg 60%
    09:00 +3°C° 0 mm 2 mps 646 mmHg 56%
    10:00 +4°C° 0 mm 2 mps 646 mmHg 53%
    11:00 +5°C° 0 mm 2 mps 646 mmHg 50%
    12:00 +6°C° 0 mm 2 mps 646 mmHg 47%
    13:00 +7°C° 0 mm 2 mps 646 mmHg 47%
    14:00 +7°C° 0 mm 2 mps 646 mmHg 47%
    15:00 +8°C° 0 mm 2 mps 645 mmHg 47%
    16:00 +7°C° 0 mm 2 mps 645 mmHg 52%
    17:00 +6°C° 0 mm 2 mps 645 mmHg 57%
    18:00 +5°C° 0 mm 2 mps 644 mmHg 61%
    19:00 +3°C° 0 mm 2 mps 644 mmHg 63%
    20:00 +2°C° 0 mm 2 mps 644 mmHg 66%
    21:00 +1°C° 0 mm 2 mps 644 mmHg 68%
    22:00 +1°C° 0 mm 2 mps 644 mmHg 67%
    23:00 +1°C° 0 mm 2 mps 644 mmHg 66%

    Pasado mañana, 9 Abril, Jueves

    Tiempo Temperatura Precipitaciones Viento Presión Humedad
    00:00 +1°C° 0 mm 2 mps 644 mmHg 66%
    01:00 +2°C° 0 mm 1 mps 643 mmHg 66%
    02:00 +1°C° 0 mm 1 mps 642 mmHg 67%
    03:00 +1°C° 0 mm 1 mps 642 mmHg 68%
    04:00 +1°C° 0 mm 1 mps 641 mmHg 67%
    05:00 +2°C° 0 mm 1 mps 641 mmHg 67%
    06:00 +2°C° 0 mm 1 mps 641 mmHg 66%
    07:00 +3°C° 0 mm 1 mps 641 mmHg 63%
    08:00 +5°C° 0 mm 1 mps 640 mmHg 60%
    09:00 +5°C° 0 mm 2 mps 640 mmHg 56%
    10:00 +6°C° 0 mm 2 mps 640 mmHg 55%
    11:00 +7°C° 0 mm 2 mps 640 mmHg 53%
    12:00 +9°C° 0 mm 2 mps 639 mmHg 52%
    13:00 +9°C° 0 mm 2 mps 639 mmHg 51%
    14:00 +10°C° 0 mm 2 mps 639 mmHg 51%
    15:00 +10°C° 0 mm 2 mps 638 mmHg 50%
    16:00 +10°C° 0 mm 2 mps 638 mmHg 53%
    17:00 +10°C° 0 mm 1 mps 638 mmHg 55%
    18:00 +10°C° 0 mm 1 mps 638 mmHg 58%
    19:00 +9°C° 0 mm 1 mps 638 mmHg 60%
    20:00 +8°C° 0 mm 1 mps 638 mmHg 63%
    21:00 +7°C° 0 mm 1 mps 638 mmHg 65%
    22:00 +7°C° 0 mm 1 mps 637 mmHg 67%
    23:00 +6°C° 0 mm 1 mps 637 mmHg 68%

    10 Abril, Viernes

    Tiempo Temperatura Precipitaciones Viento Presión Humedad
    00:00 +6°C° 0 mm 1 mps 637 mmHg 70%
    01:00 +6°C° 0 mm 1 mps 637 mmHg 71%
    02:00 +5°C° 0 mm 1 mps 636 mmHg 72%
    03:00 +5°C° 0 mm 1 mps 636 mmHg 73%
    04:00 +5°C° 0 mm 1 mps 636 mmHg 73%
    05:00 +5°C° 0 mm 1 mps 636 mmHg 73%
    06:00 +5°C° 0 mm 1 mps 636 mmHg 73%
    07:00 +7°C° 0 mm 1 mps 636 mmHg 68%
    08:00 +9°C° 0 mm 1 mps 636 mmHg 63%
    09:00 +10°C° 0 mm 1 mps 637 mmHg 58%
    10:00 +11°C° 0.1 mm 1 mps 637 mmHg 56%
    11:00 +12°C° 0.1 mm 2 mps 637 mmHg 54%
    12:00 +13°C° 0.1 mm 2 mps 637 mmHg 53%
    13:00 +13°C° 0.2 mm 2 mps 636 mmHg 52%
    14:00 +14°C° 0.2 mm 1 mps 636 mmHg 50%
    15:00 +14°C° 0.2 mm 1 mps 636 mmHg 49%
    16:00 +13°C° 0.1 mm 2 mps 635 mmHg 54%
    17:00 +12°C° 0.1 mm 2 mps 635 mmHg 59%
    18:00 +10°C° 0.1 mm 2 mps 635 mmHg 64%
    19:00 +9°C° 0.1 mm 3 mps 635 mmHg 67%
    20:00 +8°C° 0.1 mm 3 mps 636 mmHg 70%
    21:00 +7°C° 0.1 mm 3 mps 636 mmHg 73%
    22:00 +7°C° 0.2 mm 3 mps 636 mmHg 75%
    23:00 +7°C° 0.2 mm 3 mps 635 mmHg 77%

    11 Abril, Sábado

    Tiempo Temperatura Precipitaciones Viento Presión Humedad
    00:00 +5°C° 0.2 mm 3 mps 635 mmHg 80%
    01:00 +5°C° 1.6 mm 3 mps 635 mmHg 83%
    02:00 +4°C° 1.6 mm 3 mps 635 mmHg 86%
    03:00 +4°C° 1.6 mm 3 mps 634 mmHg 89%
    04:00 +5°C° 0.9 mm 2 mps 634 mmHg 89%
    05:00 +5°C° 0.9 mm 2 mps 634 mmHg 88%
    06:00 +6°C° 0.9 mm 1 mps 635 mmHg 87%
    07:00 +6°C° 0.4 mm 1 mps 635 mmHg 87%
    08:00 +6°C° 0.4 mm 1 mps 635 mmHg 86%
    09:00 +7°C° 0.4 mm 1 mps 635 mmHg 86%
    10:00 +7°C° 0.2 mm 1 mps 635 mmHg 84%
    11:00 +8°C° 0.2 mm 1 mps 635 mmHg 82%
    12:00 +8°C° 0.2 mm 1 mps 635 mmHg 80%
    13:00 +8°C° 0.2 mm 2 mps 635 mmHg 77%
    14:00 +8°C° 0.2 mm 2 mps 635 mmHg 74%
    15:00 +9°C° 0.2 mm 2 mps 635 mmHg 71%
    16:00 +8°C° 0.1 mm 3 mps 635 mmHg 72%
    17:00 +7°C° 0.1 mm 3 mps 635 mmHg 72%
    18:00 +5°C° 0.1 mm 3 mps 635 mmHg 73%
    19:00 +5°C° 0 mm 3 mps 635 mmHg 73%
    20:00 +4°C° 0 mm 3 mps 636 mmHg 74%
    21:00 +3°C° 0 mm 3 mps 636 mmHg 75%
    22:00 +4°C° 0 mm 2 mps 637 mmHg 74%
    23:00 +3°C° 0 mm 2 mps 637 mmHg 74%

    12 Abril, Domingo

    Tiempo Temperatura Precipitaciones Viento Presión Humedad
    00:00 +3°C° 0 mm 2 mps 637 mmHg 74%
    01:00 +2°C° 0 mm 2 mps 637 mmHg 73%
    02:00 +2°C° 0 mm 2 mps 637 mmHg 73%
    03:00 +2°C° 0 mm 2 mps 637 mmHg 72%
    04:00 +1°C° 0 mm 2 mps 637 mmHg 71%
    05:00 +1°C° 0 mm 2 mps 638 mmHg 69%
    06:00 +1°C° 0 mm 2 mps 638 mmHg 68%
    07:00 +4°C° 0 mm 1 mps 638 mmHg 63%
    08:00 +5°C° 0 mm 1 mps 639 mmHg 59%
    09:00 +7°C° 0 mm 1 mps 639 mmHg 54%
    10:00 +8°C° 0 mm 1 mps 639 mmHg 51%
    11:00 +9°C° 0 mm 1 mps 640 mmHg 49%
    12:00 +10°C° 0 mm 1 mps 640 mmHg 46%
    13:00 +10°C° 0 mm 1 mps 640 mmHg 45%
    14:00 +11°C° 0 mm 1 mps 639 mmHg 43%
    15:00 +11°C° 0 mm 1 mps 639 mmHg 42%
    16:00 +11°C° 0 mm 1 mps 639 mmHg 45%
    17:00 +10°C° 0 mm 1 mps 639 mmHg 49%
    18:00 +9°C° 0 mm 1 mps 639 mmHg 52%
    19:00 +8°C° 0 mm 1 mps 640 mmHg 56%
    20:00 +6°C° 0 mm 2 mps 640 mmHg 60%
    21:00 +4°C° 0 mm 3 mps 640 mmHg 64%
    22:00 +4°C° 0 mm 3 mps 640 mmHg 64%
    23:00 +3°C° 0 mm 3 mps 640 mmHg 64%
    Mostrar más